{"data":{"norad_id":63913,"intl_designator":"2025-095Z","name":"STARLINK-34070","alt_names":[],"object_type":"PAYLOAD","status":"ACTIVE","operator":null,"country":"US","launch_date":"2025-05-10","launch_site_code":"AFETR","launch_vehicle":null,"mission":null,"orbit_class":"UNKNOWN","rcs_meters":null,"size_class":null,"mass_kg":null,"dimensions":null,"purposes":["comms"],"wikipedia_slug":null,"has_3d_model":false,"image_url":null,"decayed_at":null,"tle_current":{"epoch":"2026-05-25T03:54:30.235680Z","epoch_age_seconds":51198,"freshness":"FRESH","line1":"1 63913U 25095Z   26145.16284995  .00020138  00000+0  73894-3 0  9992","line2":"2 63913  43.0000 104.3103 0001191 269.2869  90.7846 15.27597110 59474","mean_motion":15.2759711,"eccentricity":0.0001191,"inclination_deg":43,"raan_deg":104.3103,"arg_perigee_deg":269.2869,"mean_anomaly_deg":90.7846,"bstar":0.00073894,"rev_number":5947,"period_min":94.265692869765,"perigee_km":482.18070186038,"apogee_km":483.81502418476,"semimajor_km":6861.1348630226,"source":"CELESTRAK","updated_at":"2026-05-25T13:38:20.180171Z"}}}